sat.trackr.live / text

‹ back to catalog

STARLINK-35028

NORAD 65381 · 2025-191C

PAYLOAD ACTIVE UNKNOWN

§ Identity

Operator
Country
US
Launch date
2025-08-30
Launch site
AFWTR
Launch vehicle
Mass (kg)
RCS (m²)

Purposes: comms

External: N2YO · Heavens-Above · Gunter

§ Orbital elements

Epoch: 2026-09-20T19:23:52.838880Z

Period
93.91 min
Inclination
97.2850°
Eccentricity
0.0001864
Mean motion
15.33449662 rev/d
Perigee alt
464.3 km
Apogee alt
466.8 km
Semi-major
6,843.7 km
B*
3.5293e-4
RAAN
129.8014°
Arg perigee
92.0333°
Mean anomaly
268.1123°
Rev number
5,968

§ Raw data

STARLINK-350281 65381U 25191C   26263.80825045  .00011338  00000+0  35293-3 0  99922 65381  97.2850 129.8014 0001864  92.0333 268.1123 15.33449662 59684

JSON: /api/v1/satellites/65381 · /tle

For live sub-satellite position, see the globe view (requires WebGL).

§ Visibility from observer

Set your observer location to see the next 7 days of passes ≥ 10°. The values pass through the URL so the page stays shareable.

No JS? Fill the form by hand. The geolocation button needs JavaScript.